Вернуться в каталог

CZ-4B DEB

АктивенPO
NORAD 39052·DEBRIS·🇨🇳 China

Запущен Oct 14, 1999 с Taiyuan Satellite Launch Center

Loading…

Ближайшие Пролёты (ближайшие 24 часа)

TLE

СвежийSource: Space-Track

Эпоха: Sep 14, 2026, 08:40 UTC

1 39052U 99057SZ  26257.36171028  .00000915  00000-0  85470-4 0  9992
2 39052  98.7320 303.7587 0057968 102.9840 257.7859 14.95956027752131

Отслеживайте CZ-4B DEB в реальном времени с AllMySat

Download on the App Store